Weather History for KHUL - October, 2013

Change the Weather History Date:

Sunday, October 20, 2013

  Actual Average Record
Temperature  
Mean Temperature 49 °F 42 °F  
Max Temperature 57 °F 52 °F 75 °F (1963)
Min Temperature 40 °F 32 °F 11 °F (1972)
Degree Days  
Heating Degree Days 16 23  
Month to date heating degree days 301 395  
Since 1 July heating degree days 711 863  
Cooling Degree Days 0 0  
Month to date cooling degree days 0 0  
Year to date cooling degree days 198 191  
Moisture  
Dew Point 41 °F    
Average Humidity 64    
Maximum Humidity 93    
Minimum Humidity 35    
Precipitation  
Precipitation 0.11 in 0.13 in 1.79 in (1966)
Month to date precipitation 1.61 2.34  
Year to date precipitation 34.31 31.36  
Sea Level Pressure  
Sea Level Pressure 29.68 in    
Wind  
Wind Speed 8 mph (SW)    
Max Wind Speed 18 mph    
Max Gust Speed 28 mph    
Visibility 9 miles    
Events Rain    
T = Trace of Precipitation, MM = Missing Value Source: NWS Daily Summary

Daily Weather History Graph

Daily Weather History Graph

Search for Another Location

Airport or City:

Trip Planner

Search our weather history database for the weather conditions in past years. The results will help you decide how hot, cold, wet, or windy it might be!

Date:

Astronomy

Oct. 20, 2013 Rise Set
Actual Time 6:55 AM EDT 5:35 PM EDT
Civil Twilight 6:24 AM EDT 6:06 PM EDT
Nautical Twilight 5:49 AM EDT 6:40 PM EDT
Astronomical Twilight 5:15 AM EDT 7:15 PM EDT
Moon 6:35 PM EDT (10/20) 8:35 AM EDT (10/20)
Length of Visible Light 11h 41m
Length of Day
10h 40m
Full, 97% of the Moon is Illuminated
Oct 20
Full
Oct 26
Last Quarter
Nov 3
New
Nov 10
First Quarter
Nov 17
Full

Hourly Weather History & Observations

Time (EDT) Temp. Windchill Dew Point Humidity Pressure Visibility Wind Dir Wind Speed Gust Speed Precip Events Conditions
12:53 AM 48.9 °F - 41.0 °F 74% 29.75 in 10.0 mi SSE 4.6 mph - N/A   Partly Cloudy
1:53 AM 48.9 °F - 42.1 °F 77% 29.74 in 10.0 mi South 3.5 mph - N/A   Overcast
2:53 AM 48.9 °F - 42.1 °F 77% 29.72 in 10.0 mi SSE 5.8 mph - N/A   Overcast
3:53 AM 48.0 °F - 42.1 °F 80% 29.70 in 10.0 mi SSE 6.9 mph - N/A   Mostly Cloudy
4:53 AM 48.0 °F - 44.1 °F 86% 29.69 in 10.0 mi SSE 4.6 mph - N/A   Overcast
5:53 AM 48.9 °F - 46.0 °F 90% 29.66 in 9.0 mi SSE 9.2 mph - N/A   Overcast
6:53 AM 48.9 °F - 46.9 °F 93% 29.66 in 9.0 mi SSE 4.6 mph - N/A   Overcast
7:53 AM 50.0 °F - 46.9 °F 89% 29.66 in 8.0 mi South 6.9 mph - 0.00 in Rain Light Rain
8:53 AM 50.0 °F - 46.9 °F 89% 29.65 in 9.0 mi South 5.8 mph - 0.02 in Rain Light Rain
9:53 AM 52.0 °F - 48.9 °F 89% 29.64 in 10.0 mi South 6.9 mph - N/A   Overcast
10:36 AM 51.8 °F - 48.2 °F 88% 29.62 in 10.0 mi SSE 6.9 mph - N/A   Overcast
10:53 AM 52.0 °F - 48.9 °F 89% 29.62 in 10.0 mi South 8.1 mph - N/A   Overcast
11:10 AM 51.8 °F - 48.2 °F 88% 29.61 in 1.5 mi South 10.4 mph 16.1 mph 0.08 in Rain Heavy Rain
11:14 AM 51.8 °F - 48.2 °F 88% 29.62 in 1.2 mi SW 13.8 mph 20.7 mph 0.09 in Rain Heavy Rain
11:19 AM 51.8 °F - 48.2 °F 88% 29.62 in 2.0 mi WSW 11.5 mph 20.7 mph 0.09 in Rain Light Rain
11:26 AM 51.8 °F - 48.2 °F 88% 29.62 in 10.0 mi SW 8.1 mph - 0.09 in   Overcast
11:53 AM 50.0 °F - 46.0 °F 86% 29.63 in 10.0 mi West 11.5 mph 20.7 mph 0.09 in   Overcast
12:13 PM 51.8 °F - 46.4 °F 82% 29.62 in 8.0 mi SW 5.8 mph - 0.00 in Rain Light Rain
12:53 PM 51.1 °F - 46.0 °F 83% 29.64 in 10.0 mi West 5.8 mph - 0.00 in   Overcast
1:53 PM 55.0 °F - 43.0 °F 64% 29.64 in 10.0 mi WNW 8.1 mph 17.3 mph N/A   Mostly Cloudy
2:53 PM 55.9 °F - 39.0 °F 53% 29.64 in 10.0 mi West 8.1 mph - N/A   Mostly Cloudy
3:53 PM 55.9 °F - 30.9 °F 39% 29.65 in 10.0 mi WSW 15.0 mph 21.9 mph N/A   Clear
4:53 PM 54.0 °F - 27.0 °F 35% 29.67 in 10.0 mi West 15.0 mph 23.0 mph N/A   Clear
5:53 PM 51.1 °F - 28.9 °F 43% 29.70 in 10.0 mi WNW 8.1 mph - N/A   Partly Cloudy
6:53 PM 48.0 °F - 30.0 °F 50% 29.73 in 10.0 mi West 6.9 mph - N/A   Mostly Cloudy
7:53 PM 48.9 °F - 30.0 °F 48% 29.75 in 10.0 mi West 9.2 mph - N/A   Overcast
8:53 PM 48.9 °F - 30.9 °F 50% 29.77 in 10.0 mi West 9.2 mph - N/A   Overcast
9:53 PM 46.0 °F 43.1 °F 30.9 °F 56% 29.79 in 10.0 mi West 5.8 mph - N/A   Clear
10:53 PM 45.0 °F 43.5 °F 32.0 °F 60% 29.80 in 10.0 mi SW 3.5 mph - N/A   Scattered Clouds
11:53 PM 45.0 °F 41.2 °F 32.0 °F 60% 29.81 in 10.0 mi West 6.9 mph 17.3 mph N/A   Partly Cloudy